Regional Weather Roundup
Issued by NWS

Home | Current Version | Previous Version | Text Only | Print | Product List | Glossary On
Versions: 1 2 3 4 5 6 7 8 9 10 11 12 13 14 15 16 17 18 19 20 21 22 23 24 25 26 27 28 29 30 31 32 33 34 35 36 37 38 39 40 41 42 43 44 45 46 47 48 49 50
000
ASUS43 KBIS 261010
RWRND

NORTH DAKOTA REGIONAL WEATHER ROUNDUP
NATIONAL WEATHER SERVICE BISMARCK ND
500 AM CDT FRI AUG 26 2016

NOTE: "FAIR" INDICATES FEW OR NO CLOUDS BELOW 12,000 FEET WITH NO
SIGNIFICANT WEATHER AND/OR OBSTRUCTIONS TO VISIBILITY.


NDZ001>003-009>011-017-261100-
NORTHWEST NORTH DAKOTA

CITY           SKY/WX    TMP DP  RH WIND       PRES   REMARKS
WILLISTON      FAIR      50  41  71 SW3       30.07F
MINOT          MOCLDY    58  44  60 SW9       30.05S
MINOT AFB      MOCLDY    58  46  65 SW9       30.03S
$$

NDZ018>021-031>035-040>046-261100-
SOUTHWEST NORTH DAKOTA

CITY           SKY/WX    TMP DP  RH WIND       PRES   REMARKS
BISMARCK       FAIR      50  44  80 NW3       30.12F
DICKINSON      FAIR      44  38  79 S10       30.11F
GARRISON         N/A     50  46  86 CALM      30.08F
HETTINGER ARPT FAIR      39  35  86 CALM      30.16S
$$

NDZ004>008-012>016-024-026-027-054-261100-
NORTHEAST NORTH DAKOTA

CITY           SKY/WX    TMP DP  RH WIND       PRES   REMARKS
GRAND FORKS    FAIR      49  45  86 SW3       30.06S
GRND FRKS AFB  FAIR      51  48  90 W8        30.06S
DEVILS LAKE    FAIR      57  50  77 SW8       30.08F
$$

NDZ022-023-025-028>030-036>039-047>053-261100-
SOUTHEAST NORTH DAKOTA

CITY           SKY/WX    TMP DP  RH WIND       PRES   REMARKS
FARGO          FAIR      53  48  83 SW8       30.10S
JAMESTOWN      FAIR      52  47  83 W8        30.11S
$$





USA.gov is the U.S. government's official web portal to all federal, state and local government web resources and services.